CW9688 Weather Reports


time (UTC)temp
C
wind
direction
speed
KPH
gust
KPH
rain 1hr
cm
rain 24hr
cm
rain mn
cm
humidity
%
barometer
mb
20260904013804 27 22 4.8 9.7 0.00 0.33 0.00 24 995.8
20260904013305 27 20 4.8 11.3 0.00 0.33 0.00 25 995.8
20260904012805 28 34 4.8 11.3 0.00 0.33 0.00 23 995.9
20260904011804 28 56 6.4 12.9 0.00 0.33 0.00 23 995.9
20260904011305 28 43 8.0 11.3 0.00 0.33 0.00 23 996.0
20260904005805 30 40 8.0 19.3 0.00 0.33 0.00 22 995.9
20260904004305 30 49 8.0 16.1 0.00 0.33 0.00 22 996.1
20260904003804 30 65 6.4 16.1 0.00 0.33 0.00 22 996.0
20260904003304 31 56 8.0 16.1 0.00 0.33 0.00 21 996.0
20260904002306 31 70 14.5 24.1 0.00 0.33 0.00 21 996.0
20260904000804 31 79 9.7 20.9 0.00 0.33 0.00 21 995.9
20260904000304 31 80 12.9 22.5 0.00 0.33 0.00 20 995.9
20260903234305 31 89 11.3 24.1 0.00 0.33 0.00 21 996.0
20260903233805 31 76 11.3 20.9 0.00 0.33 0.00 21 995.9
20260903233305 31 103 14.5 24.1 0.00 0.33 0.00 20 995.9
20260903232805 31 99 14.5 19.3 0.00 0.33 0.00 20 996.0
20260903231805 32 100 11.3 20.9 0.00 0.33 0.00 21 995.9
20260903231305 32 106 14.5 24.1 0.00 0.33 0.00 19 995.9
20260903230804 32 74 8.0 20.9 0.00 0.33 0.00 20 995.9
20260903225306 33 71 14.5 24.1 0.00 0.33 0.00 18 995.9
20260903224805 33 118 9.7 19.3 0.00 0.33 0.00 19 995.9
20260903220804 32 92 4.8 9.7 0.00 0.33 0.00 19 996.2
20260903215804 32 26 4.8 19.3 0.00 0.33 0.00 19 996.3
20260903215306 32 61 8.0 20.9 0.00 0.33 0.00 19 996.4
20260903214304 32 347 6.4 11.3 0.00 0.33 0.00 18 996.5
20260903213305 32 70 9.7 19.3 0.00 0.33 0.00 19 996.6
20260903212804 32 39 11.3 20.9 0.00 0.33 0.00 21 996.6
20260903211804 31 60 8.0 19.3 0.00 0.33 0.00 20 996.7
20260903211305 31 54 14.5 24.1 0.00 0.33 0.00 20 997.0
20260903210305 31 56 8.0 20.9 0.00 0.33 0.00 21 997.1
20260903205805 31 46 8.0 12.9 0.00 0.33 0.00 21 997.2
20260903204804 31 104 9.7 19.3 0.00 0.33 0.00 20 997.4
20260903204305 32 70 11.3 22.5 0.00 0.33 0.00 21 997.5
20260903203805 31 86 8.0 20.9 0.00 0.33 0.00 21 997.4
20260903202306 31 18 8.0 14.5 0.00 0.33 0.00 22 997.5
20260903201805 31 130 8.0 16.1 0.00 0.33 0.00 19 997.6
20260903201304 31 65 8.0 19.3 0.00 0.33 0.00 18 997.8
20260903200805 31 83 9.7 20.9 0.00 0.33 0.00 21 997.8
20260903195804 31 29 9.7 19.3 0.00 0.33 0.00 21 998.0
20260903194804 30 48 9.7 16.1 0.00 0.33 0.00 22 998.2
20260903194304 30 28 4.8 20.9 0.00 0.33 0.00 21 998.2
20260903193305 30 72 14.5 24.1 0.00 0.33 0.00 22 998.2
20260903192804 30 87 9.7 19.3 0.00 0.33 0.00 23 998.3
20260903191304 30 199 3.2 16.1 0.00 0.33 0.00 25 998.5
20260903190304 30 106 9.7 19.3 0.00 0.33 0.00 22 998.6
20260903185306 30 78 6.4 19.3 0.00 0.33 0.00 23 998.7
20260903184805 30 111 8.0 14.5 0.00 0.33 0.00 25 998.7
20260903184304 30 83 1.6 4.8 0.00 0.33 0.00 25 998.9
20260903183805 30 119 9.7 19.3 0.00 0.33 0.00 24 999.0
20260903182306 29 85 9.7 12.9 0.00 0.33 0.00 24 999.4
20260903181804 30 100 9.7 19.3 0.00 0.33 0.00 25 999.6
20260903181304 30 105 8.0 14.5 0.00 0.33 0.00 27 999.6
20260903180805 28 94 6.4 14.5 0.00 0.33 0.00 28 999.7
20260903175805 28 28 6.4 9.7 0.00 0.33 0.00 24 999.8
20260903174305 28 42 4.8 12.9 0.00 0.33 0.00 26 1000.0
20260903173804 28 58 6.4 12.9 0.00 0.33 0.00 28 1000.1
20260903173304 28 89 8.0 11.3 0.00 0.33 0.00 28 1000.1
20260903172804 27 61 4.8 11.3 0.00 0.33 0.00 28 1000.2
20260903172306 28 92 9.7 19.3 0.00 0.33 0.00 29 1000.2
20260903171805 27 114 11.3 14.5 0.00 0.33 0.00 29 1000.2
20260903151304 21 358 8.0 11.3 0.00 0.33 0.00 48 1000.2
20260903150304 21 183 6.4 9.7 0.00 0.33 0.00 51 1011.2
20260903145804 21 163 4.8 9.7 0.00 0.33 0.00 50 1011.2
20260903144804 20 164 4.8 9.7 0.00 0.33 0.00 54 1011.2
20260903143804 19 175 4.8 11.3 0.00 0.33 0.00 56 1011.2
20260903143304 19 179 6.4 14.5 0.00 0.33 0.00 57 1011.2
20260903142804 18 181 6.4 11.3 0.00 0.33 0.00 58 1011.2
20260903142306 18 154 4.8 12.9 0.00 0.33 0.00 58 1011.2
20260903141304 18 162 4.8 11.3 0.00 0.33 0.00 63 1011.2
20260903140304 17 99 1.6 4.8 0.00 0.33 0.00 66 1011.2
20260903134305 16 181 4.8 9.7 0.00 0.33 0.00 69 1011.2
20260903133804 16 168 3.2 4.8 0.00 0.33 0.00 71 1011.2
20260903132306 15 140 3.2 9.7 0.00 0.33 0.00 74 1011.2
20260903131304 15 173 3.2 8.0 0.00 0.33 0.00 74 1011.2
20260903130304 15 201 0.0 1.6 0.00 0.33 0.00 74 1011.2
20260903124804 15 211 3.2 8.0 0.00 0.33 0.00 76 1011.2
20260903122305 13 196 3.2 4.8 0.00 0.33 0.00 84 1011.2
20260903121804 13 214 3.2 4.8 0.00 0.33 0.00 84 1011.2
20260903120804 13 176 3.2 3.2 0.00 0.33 0.00 84 1011.2
20260903114805 13 211 0.0 3.2 0.00 0.33 0.00 84 1011.2
20260903113804 15 165 1.6 4.8 0.00 0.33 0.00 81 1011.2
20260903113304 14 182 3.2 4.8 0.00 0.33 0.00 83 1011.2
20260903111804 14 211 3.2 4.8 0.00 0.33 0.00 86 1011.2
20260903111304 13 213 3.2 4.8 0.00 0.33 0.00 87 1011.2
20260903110304 13 193 0.0 0.0 0.00 0.33 0.00 88 1011.2
20260903104305 13 193 0.0 1.6 0.00 0.33 0.00 87 1011.2
20260903103304 14 193 3.2 4.8 0.00 0.33 0.00 87 1011.2
20260903102306 14 193 0.0 1.6 0.00 0.33 0.00 87 1011.2
20260903100804 15 176 0.0 3.2 0.00 0.33 0.00 86 1011.2
20260903100304 15 176 4.8 4.8 0.00 0.33 0.00 88 1011.2
20260903095804 14 176 0.0 0.0 0.00 0.33 0.00 87 1011.2
20260903095306 14 176 0.0 0.0 0.00 0.33 0.00 88 1011.2
20260903094805 14 176 0.0 0.0 0.00 0.33 0.00 86 1011.2
20260903094304 15 176 0.0 0.0 0.00 0.33 0.00 86 1011.2
20260903093305 15 176 0.0 0.0 0.00 0.33 0.00 86 1011.2
20260903092306 15 176 0.0 1.6 0.00 0.33 0.00 84 1011.2
20260903091304 15 180 1.6 3.2 0.00 0.33 0.00 86 1011.2
20260903090304 16 180 0.0 1.6 0.00 0.33 0.00 84 1011.2
20260903085804 16 180 0.0 3.2 0.00 0.33 0.00 83 1011.2
20260903084804 16 178 3.2 8.0 0.00 0.33 0.00 83 1011.2
20260903084304 16 182 1.6 4.8 0.00 0.33 0.00 83 1011.2
20260903082804 16 193 1.6 3.2 0.00 0.33 0.00 80 1011.2
20260903082306 16 186 1.6 3.2 0.00 0.33 0.00 79 1011.2
20260903081304 16 179 3.2 8.0 0.00 0.33 0.00 79 1011.2
20260903080804 16 173 3.2 4.8 0.00 0.33 0.00 79 1011.2
20260903080304 16 178 3.2 4.8 0.00 0.33 0.00 80 1011.2
20260903075804 16 156 1.6 3.2 0.00 0.33 0.00 80 1011.2
20260903074804 16 146 4.8 9.7 0.00 0.33 0.00 84 1011.2
20260903073805 16 147 0.0 0.0 0.00 0.33 0.00 86 1011.2
20260903073304 16 147 1.6 3.2 0.00 0.33 0.00 85 1011.2
20260903072804 16 147 0.0 1.6 0.00 0.33 0.00 85 1011.2
20260903070804 16 147 0.0 0.0 0.00 0.33 0.00 87 1011.2
20260903065306 16 147 3.2 3.2 0.00 0.33 0.00 86 1011.2
20260903064805 16 147 0.0 0.0 0.00 0.33 0.00 86 1011.2
20260903064304 16 147 0.0 0.0 0.00 0.33 0.00 86 1011.2
20260903062804 16 130 1.6 3.2 0.00 0.33 0.00 86 1011.2
20260903062306 16 130 1.6 3.2 0.00 0.33 0.00 86 1011.2
20260903061304 16 56 1.6 4.8 0.00 0.33 0.00 87 1011.2
20260903055306 16 156 1.6 3.2 0.00 0.33 0.33 86 1011.2
20260903054804 16 156 0.0 1.6 0.00 0.33 0.33 86 1011.2
20260903054304 17 163 0.0 4.8 0.00 0.33 0.33 84 1011.2
20260903053804 17 143 1.6 4.8 0.00 0.33 0.33 83 1011.2
20260903051304 17 161 4.8 8.0 0.00 0.33 0.33 83 1011.2
20260903050804 17 113 4.8 8.0 0.00 0.33 0.33 83 1011.2
20260903044804 16 213 3.2 4.8 0.00 0.33 0.33 87 1011.2
20260903043804 16 112 3.2 4.8 0.00 0.33 0.33 88 1011.2
20260903042804 16 122 0.0 0.0 0.00 0.33 0.33 87 1011.2
20260903040804 16 30 0.0 0.0 0.23 0.33 0.33 87 1011.2
20260903034804 17 81 4.8 11.3 0.33 0.33 0.33 81 1011.2
20260903032803 16 16 4.8 9.7 0.33 0.33 0.33 85 1013.7
20260903032306 17 56 3.2 8.0 0.33 0.33 0.33 83 1013.7
20260903031804 17 169 8.0 11.3 0.33 0.33 0.33 79 1013.7
20260903031304 18 32 8.0 12.9 0.30 0.30 0.30 75 1013.7
20260903030804 20 185 9.7 16.1 0.10 0.10 0.10 65 1013.7
20260903030304 22 179 9.7 14.5 0.03 0.03 0.03 57 1013.7
20260903024804 22 351 8.0 12.9 0.00 0.00 0.00 46 1013.7
20260903022804 22 350 6.4 19.3 0.00 0.00 0.00 45 1013.7
20260903021804 22 18 11.3 19.3 0.00 0.00 0.00 46 1013.7